When you browse on this site, cookies collect data to enhance your experience and personalize the content and advertising you see.
Visit our Privacy Policy to learn more. By continuing to use the site, you agree to this use of cookies and data.

Hourly Weather Batumi

Today, 11 July, Saturday

Time Temperature Precipitation Wind Pressure Humidity
00:00 +24°C° 0.1 mm 1 mps 762 mmHg 97%
01:00 +24°C° 0.1 mm 1 mps 761 mmHg 97%
02:00 +24°C° 0.1 mm 1 mps 761 mmHg 97%
03:00 +24°C° 0.1 mm 1 mps 761 mmHg 98%
04:00 +24°C° 0 mm 1 mps 761 mmHg 97%
05:00 +25°C° 0 mm 1 mps 761 mmHg 97%
06:00 +25°C° 0 mm 1 mps 761 mmHg 96%
07:00 +26°C° 0.1 mm 1 mps 761 mmHg 93%
08:00 +27°C° 0.1 mm 1 mps 760 mmHg 90%
09:00 +28°C° 0.1 mm 1 mps 760 mmHg 86%
10:00 +28°C° 0 mm 2 mps 760 mmHg 85%
11:00 +29°C° 0 mm 2 mps 759 mmHg 83%
12:00 +29°C° 0 mm 2 mps 759 mmHg 81%
13:00 +29°C° 0.1 mm 2 mps 759 mmHg 82%
14:00 +29°C° 0.1 mm 2 mps 758 mmHg 83%
15:00 +29°C° 0.1 mm 2 mps 758 mmHg 84%
16:00 +28°C° 0.1 mm 2 mps 758 mmHg 87%
17:00 +28°C° 0.1 mm 1 mps 758 mmHg 89%
18:00 +27°C° 0.1 mm 1 mps 758 mmHg 91%
19:00 +26°C° 0 mm 1 mps 758 mmHg 93%
20:00 +26°C° 0 mm 1 mps 759 mmHg 95%
21:00 +25°C° 0 mm 1 mps 759 mmHg 96%
22:00 +25°C° 0 mm 1 mps 759 mmHg 96%
23:00 +25°C° 0 mm 1 mps 759 mmHg 95%

Tomorrow, 12 July, Sunday

Time Temperature Precipitation Wind Pressure Humidity
00:00 +24°C° 0 mm 1 mps 758 mmHg 94%
01:00 +24°C° 0 mm 1 mps 758 mmHg 94%
02:00 +24°C° 0 mm 1 mps 758 mmHg 93%
03:00 +24°C° 0 mm 1 mps 757 mmHg 93%
04:00 +25°C° 0 mm 1 mps 757 mmHg 92%
05:00 +25°C° 0 mm 1 mps 757 mmHg 91%
06:00 +26°C° 0 mm 1 mps 757 mmHg 89%
07:00 +27°C° 0 mm 1 mps 756 mmHg 86%
08:00 +28°C° 0 mm 1 mps 756 mmHg 82%
09:00 +29°C° 0 mm 1 mps 756 mmHg 79%
10:00 +29°C° 0.1 mm 1 mps 756 mmHg 79%
11:00 +30°C° 0.1 mm 1 mps 755 mmHg 79%
12:00 +30°C° 0.1 mm 2 mps 755 mmHg 80%
13:00 +30°C° 0.1 mm 2 mps 755 mmHg 80%
14:00 +30°C° 0.1 mm 2 mps 755 mmHg 80%
15:00 +30°C° 0.1 mm 2 mps 754 mmHg 80%
16:00 +29°C° 0.1 mm 2 mps 754 mmHg 83%
17:00 +29°C° 0.1 mm 2 mps 755 mmHg 86%
18:00 +28°C° 0.1 mm 1 mps 755 mmHg 90%
19:00 +27°C° 0.1 mm 1 mps 755 mmHg 92%
20:00 +26°C° 0.1 mm 1 mps 755 mmHg 95%
21:00 +25°C° 0.1 mm 1 mps 756 mmHg 97%
22:00 +25°C° 0.1 mm 1 mps 756 mmHg 97%
23:00 +25°C° 0.1 mm 1 mps 756 mmHg 96%

Day after tomorrow, 13 July, Monday

Time Temperature Precipitation Wind Pressure Humidity
00:00 +25°C° 0.1 mm 1 mps 756 mmHg 96%
01:00 +25°C° 0 mm 1 mps 755 mmHg 95%
02:00 +25°C° 0 mm 1 mps 755 mmHg 95%
03:00 +25°C° 0 mm 1 mps 755 mmHg 94%
04:00 +25°C° 0 mm 1 mps 755 mmHg 93%
05:00 +25°C° 0 mm 1 mps 755 mmHg 92%
06:00 +25°C° 0 mm 2 mps 755 mmHg 91%
07:00 +27°C° 0.2 mm 2 mps 754 mmHg 86%
08:00 +28°C° 0.2 mm 2 mps 754 mmHg 81%
09:00 +29°C° 0.2 mm 2 mps 754 mmHg 76%
10:00 +30°C° 0.7 mm 2 mps 754 mmHg 74%
11:00 +30°C° 0.7 mm 3 mps 754 mmHg 72%
12:00 +32°C° 0.7 mm 4 mps 754 mmHg 70%
13:00 +30°C° 0.9 mm 4 mps 754 mmHg 75%
14:00 +30°C° 0.9 mm 4 mps 753 mmHg 79%
15:00 +29°C° 0.9 mm 5 mps 753 mmHg 83%
16:00 +29°C° 0.5 mm 4 mps 754 mmHg 86%
17:00 +28°C° 0.5 mm 4 mps 754 mmHg 88%
18:00 +27°C° 0.5 mm 4 mps 754 mmHg 91%
19:00 +27°C° 0.7 mm 4 mps 755 mmHg 92%
20:00 +26°C° 0.7 mm 4 mps 756 mmHg 94%
21:00 +25°C° 0.7 mm 4 mps 756 mmHg 96%
22:00 +25°C° 1.1 mm 4 mps 756 mmHg 95%
23:00 +25°C° 1.1 mm 4 mps 756 mmHg 95%

14 July, Tuesday

Time Temperature Precipitation Wind Pressure Humidity
00:00 +25°C° 1.1 mm 4 mps 756 mmHg 95%
01:00 +23°C° 1.1 mm 4 mps 757 mmHg 95%
02:00 +23°C° 1.1 mm 4 mps 757 mmHg 95%
03:00 +23°C° 1.1 mm 4 mps 757 mmHg 95%
04:00 +23°C° 1.2 mm 4 mps 757 mmHg 95%
05:00 +24°C° 1.2 mm 3 mps 757 mmHg 95%
06:00 +25°C° 1.2 mm 3 mps 757 mmHg 95%
07:00 +25°C° 1.4 mm 3 mps 758 mmHg 95%
08:00 +25°C° 1.4 mm 4 mps 758 mmHg 95%
09:00 +25°C° 1.4 mm 4 mps 758 mmHg 95%
10:00 +26°C° 0.4 mm 4 mps 758 mmHg 92%
11:00 +27°C° 0.4 mm 4 mps 758 mmHg 88%
12:00 +27°C° 0.4 mm 4 mps 758 mmHg 85%
13:00 +28°C° 0.4 mm 4 mps 758 mmHg 85%
14:00 +28°C° 0.4 mm 4 mps 758 mmHg 84%
15:00 +28°C° 0.4 mm 4 mps 758 mmHg 84%
16:00 +28°C° 0.3 mm 4 mps 758 mmHg 85%
17:00 +28°C° 0.3 mm 3 mps 759 mmHg 86%
18:00 +27°C° 0.3 mm 3 mps 759 mmHg 88%
19:00 +26°C° 0.2 mm 3 mps 759 mmHg 91%
20:00 +25°C° 0.2 mm 3 mps 760 mmHg 93%
21:00 +24°C° 0.2 mm 3 mps 761 mmHg 96%
22:00 +24°C° 0.3 mm 3 mps 761 mmHg 95%
23:00 +24°C° 0.3 mm 3 mps 761 mmHg 94%

15 July, Wednesday

Time Temperature Precipitation Wind Pressure Humidity
00:00 +22°C° 0.3 mm 3 mps 761 mmHg 94%
01:00 +22°C° 0.4 mm 3 mps 761 mmHg 93%
02:00 +22°C° 0.4 mm 3 mps 761 mmHg 93%
03:00 +22°C° 0.4 mm 3 mps 761 mmHg 93%
04:00 +23°C° 0.3 mm 2 mps 761 mmHg 92%
05:00 +24°C° 0.3 mm 2 mps 760 mmHg 91%
06:00 +24°C° 0.3 mm 2 mps 760 mmHg 90%
07:00 +26°C° 0.1 mm 2 mps 760 mmHg 84%
08:00 +27°C° 0.1 mm 2 mps 760 mmHg 79%
09:00 +29°C° 0.1 mm 2 mps 760 mmHg 74%
10:00 +29°C° 0 mm 2 mps 759 mmHg 74%
11:00 +29°C° 0 mm 3 mps 759 mmHg 75%
12:00 +30°C° 0 mm 3 mps 759 mmHg 75%
13:00 +29°C° 0.1 mm 3 mps 759 mmHg 78%
14:00 +29°C° 0.1 mm 3 mps 759 mmHg 81%
15:00 +28°C° 0.1 mm 3 mps 758 mmHg 84%
16:00 +28°C° 0.1 mm 3 mps 758 mmHg 86%
17:00 +27°C° 0.1 mm 3 mps 758 mmHg 88%
18:00 +27°C° 0.1 mm 2 mps 758 mmHg 90%
19:00 +26°C° 0.1 mm 2 mps 759 mmHg 92%
20:00 +25°C° 0.1 mm 2 mps 759 mmHg 94%
21:00 +24°C° 0.1 mm 2 mps 760 mmHg 96%
22:00 +24°C° 0.1 mm 2 mps 760 mmHg 95%
23:00 +23°C° 0.1 mm 2 mps 760 mmHg 94%

16 July, Thursday

Time Temperature Precipitation Wind Pressure Humidity
00:00 +23°C° 0.1 mm 1 mps 760 mmHg 93%
01:00 +23°C° 0.1 mm 1 mps 760 mmHg 92%
02:00 +23°C° 0.1 mm 1 mps 759 mmHg 91%
03:00 +23°C° 0.1 mm 1 mps 759 mmHg 91%
04:00 +23°C° 0 mm 1 mps 759 mmHg 89%
05:00 +24°C° 0 mm 1 mps 759 mmHg 88%
06:00 +24°C° 0 mm 1 mps 758 mmHg 86%
07:00 +26°C° 0 mm 1 mps 758 mmHg 81%
08:00 +28°C° 0 mm 1 mps 758 mmHg 75%
09:00 +30°C° 0 mm 1 mps 757 mmHg 70%
10:00 +30°C° 0 mm 1 mps 757 mmHg 73%
11:00 +30°C° 0 mm 2 mps 756 mmHg 76%
12:00 +30°C° 0 mm 2 mps 756 mmHg 78%
13:00 +29°C° 0.1 mm 2 mps 756 mmHg 79%
14:00 +29°C° 0.1 mm 2 mps 756 mmHg 80%
15:00 +29°C° 0.1 mm 2 mps 755 mmHg 81%
16:00 +28°C° 0.1 mm 2 mps 756 mmHg 84%
17:00 +28°C° 0.1 mm 2 mps 756 mmHg 86%
18:00 +27°C° 0.1 mm 2 mps 756 mmHg 89%
19:00 +26°C° 0 mm 1 mps 756 mmHg 91%
20:00 +25°C° 0 mm 1 mps 757 mmHg 93%
21:00 +24°C° 0 mm 1 mps 757 mmHg 96%
22:00 +24°C° 0.1 mm 1 mps 757 mmHg 96%
23:00 +24°C° 0.1 mm 1 mps 757 mmHg 95%
Show more